Theta_e
313 314 314 314 314 314 315 315 316 316 316 316 316 316 316 316 313 300 291 298 305 312 311 302 302 296 296 295 296 302 294 293 297 297 300 299 298 296 296 298 297 299 297 295 297
313 314 314 314 314 314 314 315 315 315 315 315 315 315 315 314 304 296 302 311 310 312 299 298 296 294 290 292 294 298 293 296 301 298 295 294 295 295 292 292 293 292 293 294 295
314 314 315 315 316 316 316 315 315 314 315 315 314 314 314 310 292 292 309 309 310 310 301 300 298 294 290 291 294 295 295 298 297 294 292 292 293 293 292 291 294 295 293 293 292
315 316 316 316 316 317 316 315 315 314 314 314 313 313 313 299 282 293 305 306 308 304 301 298 295 292 293 292 296 292 297 299 298 294 292 291 290 290 292 296 296 296 294 292 293
316 316 317 317 317 317 318 316 315 313 313 313 312 312 299 286 287 294 308 301 301 300 297 295 293 295 292 294 296 294 294 295 293 292 290 290 290 291 291 295 293 293 293 292 294
317 317 317 317 317 318 318 316 315 313 312 312 311 311 289 282 292 293 294 295 294 294 294 295 295 295 291 293 293 295 294 291 292 290 289 288 288 288 295 296 294 291 291 292 293
318 317 317 317 317 318 318 317 314 312 311 311 310 304 288 286 291 291 294 292 293 292 292 294 294 293 294 292 291 290 289 292 291 290 288 286 288 286 295 292 292 291 290 292 293
318 317 317 316 316 317 318 316 314 312 309 309 310 295 283 291 289 291 291 291 293 293 292 293 294 293 292 292 289 288 286 284 290 289 288 289 285 292 288 290 291 290 290 290 292
315 315 314 314 314 316 318 314 311 307 306 309 294 285 283 296 288 290 290 290 291 291 291 294 292 290 289 286 285 284 282 283 287 288 285 286 286 293 285 286 287 287 289 290 291
312 313 313 312 313 314 317 309 307 303 300 297 291 283 287 284 289 290 289 291 289 288 288 288 286 284 283 284 280 281 280 283 284 286 283 281 283 290 291 285 286 285 285 287 290
309 309 310 310 311 313 306 293 294 291 289 285 285 285 286 288 290 288 290 289 287 285 281 283 280 278 284 283 282 280 281 281 281 284 282 282 283 287 289 284 284 286 287 287 289
306 307 307 308 309 312 297 290 288 289 285 292 290 287 288 289 284 287 291 285 284 279 281 279 277 282 282 283 283 282 280 280 282 283 281 280 280 285 287 286 288 289 289 289 290
303 304 304 305 306 304 293 292 296 293 283 288 290 288 287 288 284 284 288 285 281 278 279 276 278 282 281 279 279 278 277 278 280 282 281 280 281 283 285 285 287 288 291 291 290
301 302 302 303 303 303 297 296 296 293 276 285 285 286 287 287 282 288 288 285 281 279 278 278 280 281 280 279 280 276 279 279 278 277 274 279 275 281 285 286 286 289 288 289 289
301 301 301 301 296 299 299 298 297 295 278 286 283 290 287 284 284 284 288 284 280 279 280 277 278 278 278 279 280 278 280 279 278 275 274 274 274 277 281 283 286 288 287 288 289
301 301 301 295 293 298 299 298 298 285 277 280 281 280 281 283 283 284 284 286 284 280 279 278 279 279 279 279 279 281 280 280 277 275 268 274 275 280 281 284 286 286 287 288 287
301 299 297 295 288 296 296 297 284 279 284 279 277 280 280 279 280 281 280 279 277 272 274 277 277 278 280 278 279 278 276 269 266 265 270 273 273 278 283 286 286 288 289 288 287
301 301 295 293 293 293 293 288 277 277 282 283 280 280 277 279 279 280 278 275 279 277 272 273 271 277 279 278 277 276 276 272 266 268 272 275 273 279 285 286 288 288 289 288 286
298 292 287 291 292 290 285 277 277 282 285 283 279 276 272 279 279 278 277 276 279 279 277 271 274 277 279 278 278 277 274 277 273 268 269 275 277 282 286 286 285 287 285 287 287
290 289 286 292 295 291 281 279 279 286 288 282 281 280 275 273 277 278 277 280 280 281 280 279 274 277 277 278 277 277 279 274 272 265 265 273 274 277 282 285 284 284 285 285 285
286 282 286 294 296 284 275 277 279 287 288 286 282 283 281 276 278 276 279 281 282 280 282 278 278 274 276 273 275 274 274 273 274 273 270 269 275 281 282 283 286 285 284 284 284
285 275 288 291 277 279 278 281 285 283 288 285 285 285 284 285 279 278 278 280 284 284 280 283 280 271 272 275 276 275 276 276 271 270 272 274 276 283 284 284 284 284 286 284 285
276 280 287 287 271 269 275 277 279 280 283 282 283 285 286 283 281 284 284 286 286 285 285 283 279 273 275 275 274 270 276 278 277 276 271 271 277 282 282 283 284 284 285 287 286
280 272 275 283 279 275 272 273 275 279 279 283 284 283 282 281 285 283 282 285 283 285 292 289 281 278 276 277 276 273 271 277 276 271 277 277 279 279 281 282 283 283 286 287 286
274 271 274 270 272 272 273 275 274 273 279 279 279 278 275 276 279 280 283 285 283 286 286 286 279 281 282 281 277 278 274 275 276 278 274 280 279 281 282 281 282 283 285 285 286
275 270 271 272 275 273 274 272 273 274 275 273 273 274 276 274 275 276 276 280 281 279 281 283 279 280 281 283 284 279 278 278 278 278 278 279 278 282 282 281 282 284 284 284 285
283 282 277 273 267 268 268 272 273 276 277 278 276 274 273 276 278 279 281 281 281 279 280 280 279 279 277 281 280 274 280 280 277 277 278 275 280 283 284 284 283 282 282 282 283
Wind_Speed
15 15 15 15 15 15 16 16 16 16 15 15 16 15 13 13 12 2 6 6 5 2 1 2 0 2 3 2 3 3 1 7 7 9 7 2 4 3 1 5 4 6 4 2 12
14 15 15 16 16 15 16 16 16 15 15 14 14 14 12 12 2 7 6 6 2 2 2 1 2 3 1 3 3 5 5 8 5 4 4 4 4 3 2 4 5 3 1 4 14
14 14 15 15 16 17 17 17 16 16 15 13 13 11 9 8 3 6 6 3 3 3 2 1 2 2 2 3 5 5 6 4 3 3 2 3 4 3 4 6 7 13 7 8 7
14 15 16 17 17 19 19 17 16 16 15 14 12 9 8 2 6 2 1 1 3 5 3 4 4 4 4 6 7 4 8 6 4 4 2 4 5 5 8 8 1 9 8 10 14
13 14 15 17 19 20 19 17 17 15 13 12 11 7 1 0 11 4 0 1 4 6 5 5 5 4 4 5 3 6 6 6 5 6 6 3 9 8 9 11 6 3 10 16 17
13 15 16 18 20 21 20 17 17 15 12 10 8 3 2 5 2 2 1 3 5 4 4 5 5 5 4 5 5 5 4 4 6 6 5 6 4 4 10 13 10 8 12 14 17
14 15 17 20 22 22 20 20 15 11 10 7 6 2 1 14 2 2 2 2 3 3 3 3 3 3 2 4 3 2 5 7 7 6 6 5 9 16 17 6 12 12 11 14 17
17 17 18 23 23 24 24 22 16 7 4 6 6 2 9 1 0 1 1 1 2 2 2 1 2 2 3 2 3 3 1 4 1 5 3 6 13 6 3 10 16 10 11 12 17
18 18 22 24 26 25 25 18 6 2 2 7 4 2 10 1 1 2 1 2 1 1 2 1 2 3 1 2 4 2 6 6 8 8 3 6 10 3 3 7 9 10 11 12 13
23 23 23 26 26 26 28 10 2 5 3 2 1 3 4 5 3 3 2 2 1 2 3 3 3 2 1 5 10 7 6 6 7 6 4 5 19 14 10 5 11 11 10 12 14
25 25 26 28 29 29 15 4 5 4 1 9 7 7 1 2 3 3 3 5 2 2 5 2 4 10 21 6 2 1 4 5 3 3 5 10 14 26 10 7 12 15 14 16 19
25 26 27 28 30 28 4 3 1 1 11 12 16 8 3 5 3 6 7 7 6 7 5 1 11 11 1 6 7 6 5 8 7 2 5 9 18 22 14 13 20 20 20 21 15
24 25 27 28 30 6 4 2 4 3 4 10 7 6 6 9 7 8 12 6 6 8 9 10 5 4 9 5 6 6 8 4 6 2 5 7 14 11 5 7 11 13 19 16 16
22 24 26 31 7 8 6 2 2 0 3 9 6 6 4 6 6 3 7 6 4 13 7 9 5 6 5 6 9 6 6 4 2 2 6 2 12 9 8 11 7 13 10 13 13
23 24 22 20 12 7 4 3 3 2 8 3 3 1 3 6 5 3 3 2 7 8 8 9 8 6 5 8 9 6 3 3 2 1 5 2 4 8 3 9 10 9 8 10 11
23 23 24 7 5 7 6 4 2 1 14 5 3 4 3 2 2 3 3 1 2 5 2 5 1 4 7 3 2 7 6 7 5 2 4 8 8 14 7 8 4 4 5 5 7
24 24 16 3 5 13 12 4 5 11 3 7 6 6 4 7 5 6 6 7 8 6 7 2 5 3 4 6 3 3 8 2 5 3 10 0 5 9 10 12 6 7 9 6 5
26 28 7 7 6 4 6 7 14 12 16 2 5 4 9 10 6 8 6 5 8 2 4 8 6 11 7 8 9 7 8 9 10 6 5 3 11 10 9 9 8 8 10 8 3
22 6 5 10 6 5 5 15 16 18 9 8 3 4 5 5 7 5 10 7 9 14 11 7 7 1 2 2 5 7 7 3 7 3 4 7 10 10 14 13 6 9 5 7 4
6 4 6 4 3 4 9 28 15 9 2 3 14 11 11 7 9 9 12 6 6 17 2 6 1 1 1 0 2 4 4 4 3 4 5 6 7 9 9 8 5 8 8 7 4
3 5 6 6 1 5 13 16 9 23 18 2 9 5 6 5 8 6 9 5 8 5 4 3 4 1 2 9 12 5 4 1 3 5 7 2 9 9 9 7 8 7 5 7 6
4 5 5 5 6 4 6 8 5 18 8 8 8 22 12 14 6 5 10 8 7 10 11 6 3 5 9 2 2 2 6 7 7 7 5 2 12 3 6 6 5 3 4 4 6
3 5 5 2 4 8 8 12 13 18 17 7 7 6 14 24 14 15 11 4 11 10 9 8 2 1 2 2 4 5 6 5 2 3 9 9 8 1 3 1 3 4 4 4 6
3 5 5 3 1 5 12 18 9 13 13 14 12 5 14 19 11 16 5 3 3 6 11 11 7 12 12 7 5 6 6 9 4 3 12 12 10 1 2 3 3 2 7 7 5
1 5 2 4 7 7 6 10 17 10 4 15 6 14 8 6 9 12 8 10 2 4 3 6 8 15 21 10 3 6 5 10 14 24 9 24 16 7 8 0 1 3 6 6 7
3 2 2 4 7 6 5 5 14 12 5 11 7 18 13 7 10 6 11 8 7 4 8 3 5 9 13 20 23 17 12 12 23 25 19 29 21 9 6 3 5 7 8 10 10
2 4 4 8 3 2 6 5 8 6 5 2 8 13 17 12 19 19 13 13 16 7 2 4 6 9 20 15 12 12 23 22 7 8 15 16 22 6 11 7 12 15 14 14 17
Wind_Direction
5 359 356 350 347 341 335 331 329 334 330 325 324 323 325 325 328 353 244 216 149 69 24 302 180 132 85 241 205 140 161 233 228 169 248 232 217 177 202 153 219 192 171 294 139
5 356 352 346 340 334 329 328 327 324 320 317 318 317 321 328 300 245 239 157 150 114 31 217 190 119 84 221 228 162 181 235 203 199 237 286 240 233 211 199 229 233 154 93 137
5 355 347 342 337 332 329 325 319 315 314 310 313 310 314 323 318 247 162 197 206 166 227 72 98 146 242 189 213 188 217 210 251 218 206 258 289 302 206 238 221 210 170 156 156
358 353 347 341 339 335 328 322 314 309 306 305 308 301 315 331 281 192 182 255 216 146 183 155 158 160 243 212 196 200 235 223 225 205 215 228 307 266 201 232 233 233 163 163 181
348 343 337 338 337 335 328 322 314 307 300 296 300 291 19 296 252 171 145 198 148 149 205 174 172 177 238 244 201 205 221 217 217 216 233 307 241 239 255 249 261 141 162 186 194
337 332 332 332 332 332 330 320 312 302 295 291 279 248 168 240 139 80 337 141 175 193 205 186 203 153 250 253 235 315 269 255 244 235 236 211 245 141 237 231 231 185 197 198 199
326 328 330 332 331 329 328 321 306 289 284 270 242 196 239 241 96 105 41 224 188 198 198 213 173 191 176 281 316 324 320 303 234 211 234 163 284 228 244 200 232 206 208 209 214
335 337 337 334 330 327 328 325 316 290 243 206 197 185 243 287 142 335 54 261 252 218 209 187 180 216 215 311 320 302 341 293 321 137 240 153 270 237 193 186 232 228 226 220 217
355 347 344 339 334 329 326 328 5 71 144 151 126 160 263 39 255 159 135 187 180 265 210 164 141 198 108 142 325 242 247 215 306 189 140 196 266 272 117 170 236 238 236 228 229
356 352 344 341 337 334 325 320 72 92 44 93 335 16 270 223 173 164 126 143 162 129 93 133 62 162 68 151 223 203 227 242 227 199 194 239 262 267 265 259 260 256 242 234 230
350 346 343 339 335 331 334 346 6 343 43 208 205 224 156 148 128 199 161 124 116 90 186 209 155 201 216 222 293 287 225 249 275 207 205 232 250 269 253 253 258 254 248 235 231
349 346 343 338 331 326 332 47 116 168 299 236 245 265 217 184 170 217 131 149 155 197 138 74 236 223 197 201 226 259 272 263 268 175 197 274 259 262 254 234 239 238 242 236 232
347 345 341 336 323 342 326 303 141 134 242 286 207 198 194 157 219 213 153 158 167 162 198 184 203 131 187 194 186 221 219 235 245 297 228 305 277 263 257 242 243 241 238 244 226
338 339 341 339 326 340 286 100 123 143 356 254 223 247 130 148 239 163 195 150 200 193 174 234 231 176 165 202 166 245 207 211 242 28 254 8 286 284 270 260 265 262 222 235 223
333 334 334 348 310 294 326 113 102 307 284 242 197 106 142 179 133 225 162 90 179 177 134 237 172 174 175 195 163 224 92 123 83 131 345 199 282 256 250 280 258 265 245 237 227
327 328 328 337 311 286 345 316 16 327 247 286 121 167 137 229 216 124 155 178 154 136 219 242 287 191 200 98 130 143 80 47 55 81 296 184 175 262 213 227 256 274 281 272 225
316 316 315 336 270 307 325 263 224 221 333 260 200 169 200 191 199 174 174 184 167 120 218 170 210 180 150 96 28 108 104 327 350 6 232 71 197 275 287 263 241 268 266 303 240
329 319 297 265 243 270 309 219 228 222 221 99 153 136 187 158 224 179 153 209 245 108 119 161 284 164 181 193 172 195 169 163 197 199 247 131 239 252 243 285 271 266 273 285 235
337 340 297 262 226 135 199 220 215 233 189 162 84 179 277 232 172 154 193 210 206 181 182 151 267 94 43 151 139 182 214 176 102 61 37 222 280 287 262 266 268 265 297 278 287
324 311 253 314 192 196 219 228 229 248 327 120 218 190 202 212 177 192 171 202 225 195 134 214 83 19 117 119 70 153 171 100 345 167 236 265 265 235 289 267 284 261 258 270 270
328 319 263 318 129 215 232 235 264 268 287 285 252 277 237 205 205 214 213 226 191 151 112 131 127 360 69 210 177 153 191 170 133 169 175 251 257 217 239 246 260 281 281 269 273
314 303 280 356 326 295 267 259 271 285 296 291 274 263 276 262 211 234 226 236 141 146 161 196 121 183 198 231 333 272 209 166 141 227 244 168 251 192 225 274 195 275 326 264 240
272 290 298 108 266 293 288 282 295 317 273 282 266 268 269 259 273 232 227 256 162 170 172 180 224 281 269 357 3 209 197 225 142 92 208 150 259 44 224 157 170 138 70 10 326
306 305 316 317 275 271 299 298 322 331 302 332 277 271 261 271 267 256 268 275 278 217 193 164 164 182 222 232 133 188 206 197 158 143 235 229 228 71 123 246 314 39 47 349 307
208 269 213 302 306 299 328 310 304 330 11 355 301 7 5 304 271 271 285 235 278 301 275 158 213 204 230 210 202 193 171 183 204 235 200 251 241 237 269 231 4 345 315 334 335
221 176 315 242 259 280 274 252 298 311 348 319 356 349 348 333 313 323 349 315 232 6 177 185 246 183 236 233 241 233 216 217 207 227 248 267 275 271 313 309 341 316 345 2 4
264 269 175 248 219 191 240 237 267 280 273 287 338 339 330 335 323 303 286 271 273 288 288 199 219 208 237 235 232 236 221 219 187 210 210 237 251 285 274 334 23 16 23 14 358